User: anonymous   Login
Location: Unspecified
(0.0000°N, 0.0000°E)
Time: 17:08:09
(UTC+00:00)
Language:

Vela 6B - Orbit

View from above orbital plane
View from above orbital plane
View from above satellite
View from above satellite

Ground track
Ground track

The orbit data is extracted from the following two-line orbital elements,

1 04368U 70027B   21024.92771458  .00000732  00000-0  00000-0 0  9991
2 04368  68.8689  63.7201 8158617 131.3046   0.7958  0.21486489  8381
Epoch (UTC): 24 January 2021 22:15:54
Eccentricity: 0.8158617
inclination: 68.8689°
perigee height: 15304 km
apogee height: 207436 km
right ascension of ascending node: 63.7201°
argument of perigee: 131.3046°
revolutions per day: 0.21486489
mean anomaly at epoch: 0.7958°
orbit number at epoch: 838

The dashed part of the orbit path shows where the satellite is in the earth's shadow,  

DLR